{"data":{"norad_id":63098,"epoch":"2026-09-21T06:58:09.004800Z","epoch_age_seconds":94008,"freshness":"FRESH","line1":"1 63098U 25037X   26264.29038200  .00014138  00000+0  49512-3 0  9997","line2":"2 63098  70.0005 218.7777 0002530 287.1982  72.8916 15.29594564 87970","mean_motion":15.29594564,"eccentricity":0.000253,"inclination_deg":70.0005,"raan_deg":218.7777,"arg_perigee_deg":287.1982,"mean_anomaly_deg":72.8916,"bstar":0.00049512,"rev_number":8797,"period_min":94.142593984794,"perigee_km":475.28903284962,"apogee_km":478.75774400617,"semimajor_km":6855.1603884279,"source":"CELESTRAK","updated_at":"2026-09-22T09:00:49.761925Z"}}